[[{"header":{"parameterUnit":"m.s-1","parameterCategory":1,"la1":30.2992,"la2":30.254,"lo1":-89.0895,"lo2":-89.0443,"dy":0.0025,"dx":0.0025,"nx":19,"ny":19,"refTime":"2026-04-09T09:00:00:Z","depth":0,"parameterNumber":2,"parameterNumberName":"U-component_of_WINDS"},"data":[0,0,0,-3.6007,-3.6009,-3.6118,-3.6119,-3.6271,-3.6273,0,0,0,0,0,0,0,0,0,0,0,-3.5982,-3.5983,-3.6007,-3.601,-3.6118,-3.6119,-3.6271,-3.6273,0,0,0,0,0,0,0,0,0,0,0,-3.5981,-3.5983,-3.5984,-3.601,-3.6118,-3.6119,-3.6271,-3.6184,0,0,0,0,0,0,0,0,0,0,-3.6076,-3.606,-3.5982,-3.5985,-3.6011,-3.6118,-3.6119,-3.6179,-3.6189,-3.6227,0,-3.6263,0,-3.627,-3.6284,-3.6284,0,0,0,-3.6004,-3.6052,-3.6074,-3.5985,-3.6012,-3.6118,-3.6068,-3.6185,-3.6196,-3.624,-3.6265,-3.627,-3.6273,-3.6285,-3.6285,-3.6523,-3.6524,0,0,-3.5998,-3.6005,-3.6067,-3.6082,-3.6066,-3.6064,-3.6071,-3.6191,-3.6218,-3.6265,-3.6273,-3.6275,-3.6286,-3.6287,-3.6521,-3.6523,0,0,0,-3.5984,-3.6002,-3.6021,-3.6076,-3.6095,-3.6068,-3.6075,-3.6213,-3.6219,-3.6275,-3.6277,-3.6287,-3.6289,-3.652,-3.6522,-3.6595,0,0,0,-3.5981,-3.5994,-3.6019,-3.6024,-3.6093,-3.6155,-3.6095,-3.621,-3.6224,-3.6276,-3.6287,-3.629,-3.6518,-3.6521,-3.659,-3.6628,0,0,0,-3.5972,-3.5992,-3.6011,-3.6025,-3.6072,-3.6153,-3.6166,-3.6213,-3.6225,-3.6284,-3.6291,-3.6517,-3.652,-3.6585,-3.662,-3.6691,0,0,0,-3.5966,-3.6075,-3.6012,-3.6136,-3.6071,-3.6198,-3.6165,-3.6259,-3.6319,-3.6288,-3.6518,-3.6522,-3.6584,-3.6615,-3.6686,-3.6751,-3.6779,0,0,-3.6108,-3.6092,-3.6164,-3.6111,-3.6251,-3.6181,-3.6332,-3.638,-3.6379,-3.6475,-3.6481,-3.6592,-3.662,-3.669,-3.6938,-3.696,0,0,0,-3.6212,-3.6263,-3.6299,-3.6356,-3.6395,-3.6432,-3.6456,-3.6474,-3.6554,-3.643,-3.6638,-3.6654,-3.6695,-3.6725,-3.6744,-3.6779,-3.6537,-3.6536,-3.6536,-3.6422,-3.6415,-3.6533,-3.654,-3.6596,-3.662,-3.6665,-3.6693,-3.667,-3.672,-3.6747,-3.6898,-3.6934,-3.6949,-3.6984,-3.6783,-3.6783,-3.6783,-3.6784,-3.6627,-3.6698,-3.6667,-3.677,-3.6763,-3.6849,-3.6878,-3.6859,-3.6939,-3.6877,-3.6913,-3.6844,-3.6973,-3.7004,-3.6789,-3.6788,-3.6787,-3.6787,-3.6787,-3.6762,-3.6795,-3.6815,-3.6897,-3.6962,-3.6966,-3.7044,-3.7035,-3.7028,-3.7064,-3.7091,-3.709,-3.7086,-3.7078,-3.7078,-3.7079,-3.7079,-3.708,-3.708,-3.6892,-3.6913,-3.6979,-3.7032,-3.7067,-3.7113,-3.714,-3.7175,-3.7212,-3.72,-3.72,-3.7171,-3.6988,-3.6941,-3.7088,-3.7087,-3.7086,-3.7085,-3.7084,-3.7099,-3.7051,-3.7153,-3.7189,-3.725,-3.7314,-3.7304,-3.7376,-3.7404,-3.7443,-3.7409,-3.7275,-3.7258,-3.7243,-3.7204,-3.741,-3.741,-3.741,-3.741,-3.721,-3.7202,-3.7305,-3.7363,-3.7419,-3.742,-3.7537,-3.756,-3.7576,-3.7593,-3.7563,-3.7511,-3.7496,-3.7488,-3.7468,-3.743,-3.769,-3.769,-3.7691,-3.7336,-3.7333,-3.7433,-3.7448,-3.7496,-3.7537,-3.7646,-3.7714,-3.7723,-3.7702,-3.7606,-3.7594,-3.751,-3.7484,-3.7457,-3.7425,-3.7357,0,0]},{"header":{"parameterUnit":"m.s-1","parameterCategory":1,"la1":30.2992,"la2":30.254,"lo1":-89.0895,"lo2":-89.0443,"dy":0.0025,"dx":0.0025,"nx":19,"ny":19,"refTime":"2026-04-09T09:00:00:Z","depth":0,"parameterNumber":3,"parameterNumberName":"V-component_of_WINDS"},"data":[0,0,0,2.8779,2.878,2.8837,2.8837,2.8899,2.8899,0,0,0,0,0,0,0,0,0,0,0,2.8756,2.8756,2.8779,2.878,2.8837,2.8837,2.8899,2.8899,0,0,0,0,0,0,0,0,0,0,0,2.8756,2.8756,2.8756,2.878,2.8837,2.8837,2.8899,2.8859,0,0,0,0,0,0,0,0,0,0,2.8805,2.8779,2.8756,2.8756,2.878,2.8837,2.8837,2.8857,2.8862,2.8868,0,2.8874,0,2.8888,2.8903,2.8903,0,0,0,2.8784,2.8776,2.8797,2.8756,2.8781,2.8837,2.8812,2.886,2.8865,2.8874,2.8875,2.8877,2.8889,2.8903,2.8903,2.8933,2.8933,0,0,2.878,2.8763,2.8793,2.8799,2.8792,2.881,2.8814,2.8863,2.8862,2.8875,2.8879,2.889,2.8903,2.8904,2.8933,2.8933,0,0,0,2.8769,2.876,2.878,2.8797,2.8808,2.8812,2.8816,2.886,2.8868,2.888,2.889,2.8904,2.8904,2.8933,2.8933,2.8915,0,0,0,2.8767,2.8753,2.8779,2.8768,2.8807,2.8835,2.8812,2.8865,2.8871,2.889,2.8904,2.8905,2.8933,2.8933,2.8915,2.8909,0,0,0,2.8754,2.8752,2.8759,2.8767,2.8791,2.8835,2.8846,2.8867,2.8877,2.8903,2.8905,2.8933,2.8933,2.8916,2.891,2.8912,0,0,0,2.8734,2.874,2.8758,2.8768,2.8791,2.8823,2.8846,2.887,2.889,2.8904,2.8933,2.8933,2.8916,2.891,2.8912,2.8911,2.8908,0,0,2.8731,2.8739,2.8746,2.8764,2.879,2.8816,2.8838,2.8872,2.889,2.8917,2.8918,2.8915,2.891,2.8912,2.8902,2.89,0,0,0,2.8739,2.8744,2.8755,2.8774,2.8802,2.8825,2.8858,2.8871,2.8895,2.8901,2.8917,2.8914,2.8916,2.8916,2.8915,2.8918,2.8932,2.8932,2.8932,2.8708,2.8732,2.8747,2.8779,2.8797,2.8832,2.8849,2.8872,2.8889,2.8893,2.8901,2.8892,2.8891,2.889,2.8893,2.8902,2.8902,2.8902,2.8902,2.8705,2.8717,2.8743,2.8766,2.8791,2.881,2.8845,2.8857,2.8878,2.8887,2.889,2.8899,2.8887,2.8891,2.8901,2.8901,2.8901,2.8901,2.8901,2.8687,2.8697,2.8714,2.8746,2.8767,2.8799,2.8819,2.8841,2.8861,2.8864,2.8876,2.8876,2.8879,2.8868,2.8868,2.8868,2.8868,2.8868,2.8868,2.8662,2.8682,2.8697,2.8728,2.8744,2.8768,2.8804,2.882,2.8843,2.8858,2.8858,2.8875,2.8882,2.8883,2.8868,2.8868,2.8868,2.8868,2.8868,2.865,2.8657,2.8679,2.8696,2.8735,2.8755,2.8784,2.8815,2.8831,2.884,2.8858,2.8859,2.8868,2.8869,2.887,2.8852,2.8852,2.8852,2.8852,2.8634,2.8642,2.8671,2.8696,2.8723,2.8752,2.8777,2.8805,2.8835,2.8847,2.8853,2.8856,2.8857,2.8865,2.8867,2.8868,2.885,2.885,2.885,2.8629,2.864,2.8657,2.8689,2.8722,2.8749,2.8773,2.88,2.8835,2.8851,2.8857,2.8857,2.8862,2.8863,2.8878,2.888,2.8883,0,0]}]]